www.pogodaiklimat.ru

Погода и климат >> Архив погоды >> Россия >> Курганская область >> Куртамыш


ПОГОДА в Куртамыше

  • Прогноз погоды в Куртамыше
  • Монитор погоды в Куртамыше

АРХИВ ПОГОДЫ в Куртамыше

Время (UTC), дата Ветер
(напр.,м/с)
 
Видим.   Явления Облачность Т
(С)
Тd
(С)
f
(%)
Тe
(С)
Тes
(С)
Комфортность P
(гПа)
Po
(гПа)
Тmin
(С)
Tmax
(С)
R
(мм)
R24
(мм)
S
(см)
18 17.08 штиль 0 10 км 3/0
[Ac trans]
+16.9 +13.0 78 +17 +17 1018.8 1000.0
21 17.08 З 1 10 км 4/0
[Ac trans]
+16.7 +13.6 82 +18 +18 1018.4 999.8
00 18.08 штиль 0 10 км 4/0
[Ac trans]
+14.4 +12.3 87 +14 +14 1020.3 1001.3
03 18.08 В 2 20 км 8/3 1000 м
[Cb calv Ac trans]
+21.3 +15.6 70 +25 +26 комфорт 1018.6 1000.3 +13.8
06 18.08 Ю 1 20 км 9 баллов +28.1 +13.2 40 +30 +31 жарко 1019.4 1001.3
09 18.08 З 2 20 км 10/3 1000 м
[Cb calv Ac trans]
+29.3 +12.2 35 +30 +33 жарко 1017.7 999.8
12 18.08 СЗ 4 20 км 2 балла +29.3 +12.7 36 +30 +33 жарко 1019.3 1001.3
15 18.08 С 3 20 км 8/4 1000 м
[Cb calv Ac trans Ci fib]
+25.4 +14.4 51 +28 +28 жарко 1019.9 1001.8 +30.8
18 18.08 С 2 10 км 7 баллов +21.7 +14.6 64 +25 +25 комфорт 1022.5 1004.0
21 18.08 СВ 1 10 км 8/4 1000 м
[Cb calv Ac trans]
+17.6 +15.2 86 +19 +19 1022.3 1003.7
00 19.08 С 2 10 км 9 баллов +15.1 +13.0 87 +15 +15 1025.7 1006.7
03 19.08 С 1 20 км 8/4 1000 м
[Cb calv Ac trans Ci fib]
+17.4 +13.5 78 +18 +20 1025.1 1006.4 +15.0
06 19.08 СВ 2 20 км 7 баллов +21.7 +12.0 54 +24 +27 комфорт 1026.6 1008.0
09 19.08 СВ 2 20 км 8/3 1000 м
[Cb calv Ac trans Ci fib]
+25.6 +10.5 39 +27 +31 жарко 1024.9 1006.7
12 19.08 СВ 1 20 км 6 баллов +24.8 +10.3 40 +26 +28 жарко 1025.1 1006.7
15 19.08 штиль 0 20 км 9/4 1000 м
[Cb calv Ac trans Ci fib]
+20.9 +11.8 56 +23 +23 комфорт 1025.1 1006.6 +26.4
18 19.08 СВ 1 10 км 10 баллов +18.5 +10.1 58 +20 +20 1026.8 1008.0
21 19.08 СВ 1 10 км 10/10 1000 м
[Cb calv]
+17.7 +10.3 62 +19 +19 1025.5 1006.8
00 20.08 штиль 0 10 км {ливн. осадки} 10/10 1000 м
[Cb calv]
+15.3 +13.7 90 +15 +15 1025.3 1006.5
03 20.08 В 1 10 км {ливн. осадки} 10/8 1000 м
[Cb calv Ac trans]
+16.5 +14.4 87 +17 +18 1025.0 1006.2 +15.1 0.8
06 20.08 ЮВ 1 10 км 10 баллов +19.0 +15.9 82 +21 +21 комфорт 1025.4 1006.7
09 20.08 штиль 0 4000 м слаб. ливневой дождь 10/10 600 м
[Cb calv]
+18.6 +16.5 88 +19 +19 1022.7 1004.1
12 20.08 ЮВ 2 10 км {ливн. осадки} 10/10 1000 м
[Cb calv]
+18.7 +16.7 88 +20 +20 1019.5 1001.0
15 20.08 Ю 2 20 км {ливн. осадки} 8/6 1000 м
[Cb calv Ac trans Ci fib]
+18.0 +16.2 89 +19 +19 1018.1 999.5 +20.0 7
18 20.08 СВ 1 10 км {ливн. осадки} 9/9 1000 м
[Cb calv]
+16.4 +15.3 93 +17 +17 1017.4 998.8
21 20.08 СВ 1 4000 м слаб. ливневой дождь 10/10 1000 м
[Cb calv]
+16.6 +15.5 93 +17 +17 1016.0 997.4
00 21.08 В 2 10 км {гроза} 10/10 1000 м
[Cb calv]
+16.1 +15.0 93 +16 +16 1014.8 996.2
03 21.08 СВ 2 10 км {гроза} 10/10 1000 м
[Cb calv]
+15.0 +13.9 93 +15 +15 1015.7 997.0 +14.9 5
06 21.08 СВ 3 10 км 8/8 1000 м
[Cb calv]
+18.2 +12.0 67 +19 +21 1017.4 998.7
09 21.08 СВ 3 20 км 6/6 1000 м
[Cb calv]
+21.3 +8.4 44 +22 +26 комфорт 1016.5 998.2
12 21.08 С 4
{10}
20 км 3/3 1000 м
[Cb calv]
+21.2 +7.7 42 +22 +24 комфорт 1017.4 999.0
15 21.08 С 3
{11}
20 км 3/3 1000 м
[Cb calv]
+15.5 +8.8 64 +15 +15 1019.1 1000.3 +22.7
18 21.08 С 2 10 км ясно +12.6 +9.6 82 +12 +12 1021.8 1002.7
21 21.08 С 3 10 км ясно +11.6 +9.5 87 +10 +10 1020.1 1001.1
00 22.08 З 2 4000 м дымка 3/3 1000 м
[Cb calv]
+9.9 +8.8 93 +8 +8 1020.1 1001.0
03 22.08 СЗ 2 20 км 8/3 1000 м
[Cb calv Ci fib]
+13.4 +11.6 89 +13 +14 1020.2 1001.3 +9.8
06 22.08 СЗ 5 20 км 4 балла +19.6 +11.9 61 +21 +24 комфорт 1019.9 1001.3
09 22.08 С 4 20 км 4/4 1000 м
[Cb calv]
+22.6 +11.4 49 +25 +29 комфорт 1018.8 1000.5
12 22.08 С 3 20 км 4 балла +23.2 +9.9 43 +25 +27 комфорт 1019.7 1001.3
15 22.08 СЗ 1 20 км 3/3 1000 м
[Cb calv Ac trans]
+19.7 +11.4 59 +22 +22 комфорт 1019.7 1001.3 +23.7
18 22.08 СЗ 1 10 км ясно +15.4 +11.6 78 +16 +16 1021.6 1002.7
21 22.08 СЗ 1 10 км ясно +12.8 +10.8 88 +13 +13 1021.4 1002.4
00 23.08 штиль 0 10 км ясно +10.8 +9.6 92 +10 +10 1023.3 1004.0
03 23.08 З 1 20 км 3/0
[Ci fib]
+14.8 +11.2 79 +15 +18 1021.6 1002.8 +10.4
06 23.08 З 3 20 км 7 баллов +22.1 +9.9 46 +24 +26 комфорт 1021.2 1002.7
09 23.08 ЮЗ 3 20 км 3/0
[Ci fib]
+24.9 +8.4 35 +25 +33 комфорт 1019.1 1000.9
12 23.08 ЮЗ 3 20 км 2 балла +25.8 +7.4 31 +26 +28 жарко 1018.2 1000.0
15 23.08 Ю 1 20 км ясно +21.0 +9.3 47 +24 +24 комфорт 1016.6 998.2 +26.4
18 23.08 ЮЗ 1 10 км ясно +17.4 +9.8 61 +18 +18 1017.4 998.7
21 23.08 СЗ 2 10 км 8/3 1000 м
[Cb calv Ac trans]
+18.6 +13.2 71 +20 +20 1016.8 998.3
00 24.08 СЗ 3 10 км 7 баллов +16.9 +13.6 81 +17 +17 1018.8 1000.0
03 24.08 СЗ 3 20 км 8/0
[Ac trans Ci fib]
+16.1 +9.7 66 +16 +17 1019.7 1001.0 +14.8
06 24.08 З 4 20 км 4 балла +20.1 +8.7 48 +21 +25 комфорт 1019.9 1001.3
09 24.08 З 4 20 км 4/0
[Ac trans Ci fib]
+22.2 +7.3 38 +23 +29 комфорт 1018.5 1000.1
12 24.08 СЗ 4 20 км 2 балла +22.1 +5.1 33 +22 +24 комфорт 1019.8 1001.3
15 24.08 СЗ 1 20 км 3/0
[Ac trans Ci fib]
+18.5 +6.8 46 +20 +20 1019.3 1000.8 +22.7

 

Местоположение метеостанции Куртамыш (Курганская область, Россия): широта 54.92 долгота 64.43 высота над уровнем моря 159 м.

В архиве по умолчанию представлена погода в Куртамыше за последнюю неделю. Архивные данные за месяц целиком и за предыдущие месяцы, начиная с января 2011 года, Вы можете получить, выбрав интересующий диапазон дат из раскрывающегося списка и нажав кнопку "Ввод!".


*Определитесь, кто Вы:
робот инопланетянин человек

Внимание! Время в таблицах - всемирное. Для получения местного времени необходимо прибавить поправку, которая равна 5 ч.

Смотрите также архив погоды в соседних городах и на ближайших метеорологических станциях:

Погода в Звериноголовском (Курганская область, Россия) (57 км)
Погода в Целинном (Курганская область, Россия) (68 км)
Погода в Шумихе (Курганская область, Россия) (79 км)
Погода в Кургане (Курганская область, Россия) (85 км)
Погода в Пресногорьковке (Костанайская область, Казахстан) (100 км)
Погода в Половинном (Курганская область, Россия) (102 км)
Погода в Октябрьском (Челябинская область, Россия) (124 км)
Погода в Шадринске (Курганская область, Россия) (137 км)
Погода в Памятном (Курганская область, Россия) (146 км)
Погода в Бродокалмаке (Челябинская область, Россия) (167 км)

Пояснения к столбцам:

Ветер - указаны скорость ветра в м/с - средняя за 10 мин, порывы в срок и между сроками (в фигурных скобках) и направление, откуда дует ветер: С - северный, СВ - северо-восточный, В - восточный, ЮВ - юго-восточный, Ю - южный, ЮЗ - юго-западный, З - западный, СЗ - северо-западный.
Видимость - горизонтальная дальность видимости в метрах или километрах. При видимости от 1 до 10 км при отсутствии осадков обычно наблюдается дымка, при ухудшении видимости до 1 км и менее - туман. В сухую погоду видимость может ухудшаться дымом, пылью или мглою.
Явления - указаны атмосферные явления, наблюдавшиеся в срок или в последний час перед сроком; фигурными скобками обозначены явления, наблюдавшиеся между сроками (за 1-3 часа до срока); квадратными скобками обозначены град или гололедные отложения с указанием их диаметра в мм.
Облачность - указаны через наклонную черту общая и нижняя облачность в баллах и высота нижней границы облаков в метрах; квадратными скобками обозначены формы облаков: Ci - перистые, Cs - перисто-слоистые, Cc - перисто-кучевые, Ac - высококучевые, As - высокослоистые, Sc - слоисто-кучевые, Ns - слоисто-дождевые, Cu - кучевые, Cb - кучево-дождевые. Подробнее классификацию облаков см. в Атласе облаков (PDF).
T - Температура воздуха - температура, измеренная на высоте 2 м над землей.
Td - Температура точки росы - температура, при понижении до которой содержащийся в воздухе водяной пар достигнет насыщения.
f - Относительная влажность воздуха - влажноcть воздуха, измеренная на высоте 2 м над землей.
Te - Эффективная температура - температура, которую ощущает одетый по сезону человек в тени. Характеристика душности погоды. При расчете учитывается влияние влажности воздуха и скорости ветра на теплоощущения человека.
Tes - Эффективная температура на солнце - температура, которую ощущает человек, с поправкой на солнечный нагрев. Характеристика знойности погоды. Зависит от высоты солнца над горизонтом, облачности и скорости ветра. Ночью, в пасмурную погоду, а также при ветре 12 м/с и более поправка равна нулю.
P - Атмосферное давление - приведенное к уровню моря атмосферное давление.
Po - Атмосферное давление - измеренное на уровне метеостанции атмосферное давление.
Tmin - Минимальная температура - минимум температуры воздуха на высоте 2 м над землей.
Tmax - Максимальная температура - максимум температуры воздуха на высоте 2 м над землей.
R - Количество осадков - Количество выпавших осадков за период времени, мм. При наведении курсора мыши на число - период времени, за который выпало указанное количество осадков.
R24 - Количество осадков - Количество выпавших осадков за 24 часа, мм.
S - Снежный покров - Высота снежного покрова, см. При наведении курсора мыши на число - состояние снежного покрова и степень покрытия местности в баллах.